RH
92 91 91 93 93 89 100 100 92 64 78 98 100 99 89 68 63 52 63 48 61 56 41 38 45 40 28 22 32 44 36 46 55 37 26 28 34 39 43 70 69 67 69 67
96 91 96 92 90 99 100 91 78 74 82 98 99 100 97 78 64 58 77 51 53 58 59 53 37 40 30 22 30 40 38 64 78 66 45 36 39 38 38 43 56 59 72 61
98 99 98 93 94 100 99 78 98 98 100 99 97 99 100 98 75 62 76 66 51 64 79 78 73 46 35 28 30 32 35 44 44 44 38 44 48 41 39 45 62 60 54 49
90 100 91 93 100 100 91 75 99 88 98 98 100 97 91 96 88 74 79 82 62 70 79 83 88 70 54 42 29 40 42 55 51 41 38 38 36 43 42 46 44 58 46 46
96 95 93 87 100 100 86 96 97 83 89 98 92 99 100 97 85 79 92 80 68 67 73 74 82 80 74 56 50 45 74 80 62 71 50 51 49 41 41 42 40 41 44 44
97 96 97 99 100 100 95 70 64 60 80 94 97 91 81 94 75 70 66 74 71 71 62 59 64 73 80 79 71 68 64 84 74 84 66 69 82 54 47 43 37 38 51 41
90 98 100 100 99 99 79 74 66 88 98 87 92 90 87 76 82 83 60 59 74 56 60 64 76 87 89 88 86 90 74 85 82 95 90 98 74 52 45 46 39 35 35 37
88 100 98 94 97 93 73 74 71 74 94 90 85 88 87 91 94 86 87 60 62 56 61 93 99 98 98 96 84 86 86 92 99 99 96 86 62 42 50 51 53 38 36 32
96 97 91 84 83 81 75 74 71 74 89 85 63 90 93 99 99 98 90 80 70 63 99 100 100 99 99 99 100 92 91 83 91 100 99 95 68 35 29 35 64 36 33 37
100 98 92 84 80 72 74 83 78 76 79 68 54 77 92 81 88 97 96 85 87 85 94 100 99 88 81 99 100 100 99 100 98 100 99 87 55 33 37 70 61 38 32 33
100 98 95 88 80 69 72 87 83 80 86 77 74 77 92 97 99 100 97 90 93 100 96 95 100 100 97 98 86 82 98 99 100 100 100 89 40 34 54 50 39 32 34 40
100 99 99 93 78 69 72 90 84 89 75 95 88 92 89 94 91 95 98 99 97 90 98 99 98 100 98 96 97 78 94 87 94 86 89 61 40 40 39 33 33 33 31 38
98 100 100 100 100 99 89 89 81 99 99 96 93 90 87 87 93 97 98 93 93 99 96 98 98 96 88 98 94 83 71 61 86 72 58 54 42 39 36 35 36 32 31 40
97 99 99 99 99 100 98 98 91 98 84 99 86 80 90 74 87 85 84 80 90 100 98 100 100 98 90 87 76 83 79 69 80 76 58 48 42 41 36 36 34 34 35 34
100 100 100 99 99 99 99 99 99 99 82 99 99 97 89 93 97 98 95 90 100 100 100 100 100 99 93 94 89 94 79 77 81 88 61 59 48 35 34 33 32 34 37 44
96 98 98 95 99 99 99 99 98 100 100 99 99 95 92 92 100 100 95 100 100 100 98 100 100 95 94 100 100 84 73 61 52 67 47 44 38 34 31 30 30 33 38 38
81 94 90 100 99 97 99 98 96 100 94 100 99 99 98 97 99 98 99 100 99 100 100 100 97 94 90 99 99 84 73 61 54 44 51 48 36 36 34 33 32 33 34 36
74 96 100 100 100 100 100 98 98 100 100 100 99 97 100 100 100 100 99 100 100 100 100 99 89 90 94 99 79 64 52 46 46 46 44 42 39 38 37 35 32 31 30 30
66 74 95 98 97 98 99 100 100 99 99 99 100 96 97 100 100 99 100 100 99 100 100 100 97 100 97 71 59 51 47 42 46 43 44 41 39 34 29 30 30 30 28 28
61 71 81 86 86 90 95 98 98 99 99 99 99 96 98 99 100 99 100 100 99 98 98 92 98 93 58 50 45 42 40 38 30 29 38 33 32 30 27 26 26 28 29 34
69 69 66 67 58 67 97 94 99 99 99 99 99 100 99 99 99 99 97 98 93 92 88 84 90 65 49 43 40 37 37 34 30 28 30 30 27 26 28 30 31 35 37 42
50 50 64 78 75 82 69 79 70 96 97 93 99 100 98 98 91 98 80 82 94 94 70 83 81 77 61 48 48 42 41 49 44 38 41 40 38 45 50 54 55 50 47 45
58 53 52 56 62 77 75 77 74 88 90 95 96 99 94 88 76 90 78 85 94 85 88 83 78 50 66 68 64 65 65 70 74 74 68 66 62 62 63 68 62 54 50 53
59 58 73 85 89 92 82 94 98 85 74 96 76 88 89 67 88 89 82 87 82 85 85 68 89 62 75 77 78 78 85 82 80 80 75 69 66 65 71 82 79 67 60 60
60 67 91 84 89 88 76 86 92 80 68 71 72 71 66 90 90 85 80 85 83 77 81 95 78 72 73 79 80 83 85 90 94 92 92 89 90 94 99 96 92 80 72 66
72 78 87 77 95 94 91 85 74 72 69 61 59 74 82 75 80 71 74 67 71 82 98 89 81 78 79 80 80 89 92 92 96 96 93 91 94 93 89 90 87 84 80 68
69 86 95 90 84 93 83 84 78 70 66 89 89 62 53 79 73 65 62 84 96 98 99 93 87 84 82 83 86 92 93 96 98 95 93 91 90 91 94 93 94 93 90 90
Wind_Speed
31 29 29 35 40 45 48 28 7 26 28 14 2 8 11 18 19 31 8 9 10 13 18 21 22 31 24 27 23 30 20 1 6 17 18 22 26 26 22 6 6 6 5 6
25 19 23 33 44 55 49 23 10 15 29 10 6 0 6 18 19 20 9 17 19 14 15 15 22 26 23 20 29 27 20 6 3 7 9 13 26 18 17 16 1 17 8 5
20 18 25 36 47 57 46 16 5 10 19 6 5 8 4 9 23 16 12 7 8 11 8 7 7 20 15 33 25 33 26 12 24 22 23 7 19 24 24 18 11 7 19 7
17 21 28 39 55 55 39 11 5 10 7 10 5 9 6 13 11 12 24 14 14 19 13 12 9 13 15 12 30 21 20 27 18 22 11 10 21 18 24 26 24 15 17 16
16 19 37 43 59 54 29 10 7 9 5 14 17 10 4 12 20 15 11 14 19 16 14 17 12 3 4 16 12 15 8 13 16 13 18 16 13 25 27 28 21 25 12 12
18 23 38 50 55 53 19 18 13 17 6 7 8 6 14 7 15 16 27 27 16 21 25 14 7 6 10 2 8 12 16 10 16 20 15 10 12 28 23 22 22 18 18 9
30 28 39 54 48 52 24 19 18 5 3 6 8 9 10 18 19 18 24 35 23 28 15 15 3 4 10 11 14 8 14 10 7 5 5 11 9 11 18 9 12 16 10 10
35 34 33 37 41 49 18 23 16 7 2 3 7 8 7 8 20 21 17 22 42 19 22 4 0 1 2 3 22 19 12 7 2 5 12 2 8 10 20 8 12 11 6 3
32 34 35 37 42 50 24 18 22 5 4 5 14 9 6 3 3 10 12 30 26 29 3 4 9 5 3 3 3 9 9 6 6 4 5 13 6 6 7 4 5 5 6 6
22 31 32 34 39 43 37 17 22 17 3 3 6 2 4 6 4 3 2 9 16 24 12 4 5 9 8 6 5 2 7 2 6 4 3 5 7 5 22 6 6 3 9 12
21 30 32 33 36 38 43 25 15 19 5 2 2 2 5 5 5 2 6 0 8 2 13 8 3 3 6 3 5 13 8 7 3 3 2 7 9 6 10 10 10 17 20 17
11 32 30 31 33 34 35 27 23 16 9 4 8 6 6 10 10 6 5 11 7 8 5 3 4 3 4 9 6 4 7 8 6 8 6 7 7 8 24 26 18 15 25 23
7 22 27 30 32 32 34 25 23 15 6 7 14 10 8 9 7 8 5 6 9 5 5 4 3 4 4 5 5 7 6 10 5 7 7 6 7 10 14 20 20 18 22 22
3 13 14 21 24 28 34 26 19 23 4 2 6 13 12 19 23 21 20 22 30 17 7 2 2 3 2 4 5 5 5 14 10 3 3 7 9 17 19 18 22 19 17 18
10 9 9 12 17 19 23 23 20 21 12 1 3 8 9 9 12 19 22 24 29 20 3 1 3 2 3 2 1 4 4 8 10 5 9 9 11 23 23 27 26 22 21 20
8 10 9 14 18 21 22 7 20 24 22 3 2 4 6 9 15 15 14 32 33 20 8 2 4 5 4 1 2 6 4 3 20 6 20 17 24 25 26 28 24 23 21 22
21 8 12 18 18 21 20 5 5 22 21 5 2 2 4 7 5 3 1 9 4 4 5 2 5 4 8 3 3 8 7 12 12 15 26 21 31 26 26 25 24 22 20 20
26 9 12 20 24 27 24 9 4 18 21 4 2 2 3 4 2 1 4 3 3 5 3 3 2 7 3 3 7 20 18 20 23 27 26 27 31 29 25 23 25 21 20 20
7 18 16 14 6 3 9 17 16 20 6 2 2 3 3 3 2 2 2 3 2 2 1 3 3 2 3 5 5 21 26 18 25 29 31 32 31 28 23 22 22 22 18 15
2 5 4 4 5 10 8 2 2 3 3 3 2 4 1 1 1 2 1 2 2 1 2 6 2 3 7 8 12 25 25 29 29 28 19 22 25 24 19 17 18 18 15 12
5 2 2 3 8 3 2 3 1 2 2 3 2 3 2 3 2 2 3 1 2 1 1 3 3 1 4 20 27 26 24 20 18 20 18 20 21 18 17 14 13 13 15 15
1 2 3 7 5 6 3 3 4 2 2 1 0 3 4 3 3 2 1 2 2 1 4 4 4 4 20 32 28 26 25 22 22 19 19 20 21 19 18 17 14 13 14 15
2 1 2 4 3 5 3 2 1 2 2 5 5 2 3 2 6 2 2 2 0 1 3 1 3 9 23 26 25 23 20 18 18 18 19 19 20 19 19 16 14 16 16 17
3 1 3 2 3 3 1 3 3 4 2 11 9 2 3 3 2 1 4 2 2 2 2 2 2 19 25 25 21 21 17 15 16 15 14 14 14 15 16 18 16 19 19 16
3 4 2 2 3 4 3 6 6 3 10 9 3 1 3 2 3 2 3 3 1 2 4 3 10 25 27 25 21 21 20 18 16 13 12 11 11 13 16 16 17 16 15 14
3 3 1 1 1 2 3 5 6 3 3 1 3 1 3 1 3 2 2 2 3 2 1 14 24 25 26 24 20 20 21 18 15 13 12 12 12 11 13 13 13 14 15 16
3 2 1 4 5 4 4 6 6 4 3 1 1 2 3 2 0 3 2 1 2 5 13 18 24 26 26 22 21 20 20 18 14 13 11 11 10 11 13 13 11 10 9 11
Wind_Direction
288 276 245 219 204 196 192 172 174 210 202 209 206 214 210 203 212 234 266 181 189 204 208 208 188 212 208 196 189 199 205 195 206 213 212 201 204 208 202 192 188 225 158 247
289 265 219 202 191 191 174 175 147 184 195 220 194 153 231 205 201 206 203 204 209 214 203 211 219 210 216 231 189 198 188 203 115 333 282 226 202 207 213 223 160 220 194 231
276 236 206 197 190 188 170 156 154 175 190 253 208 206 238 192 214 193 200 252 200 199 222 226 246 233 214 218 201 196 192 209 209 213 222 150 203 196 206 206 224 200 225 188
255 223 204 194 190 182 164 153 176 165 172 196 184 176 232 197 188 208 194 222 201 194 207 244 251 246 238 219 216 203 188 219 216 233 248 228 221 213 209 210 220 210 220 222
236 218 197 191 187 177 176 136 142 160 143 145 184 180 221 211 209 178 219 221 217 207 201 196 210 187 262 222 236 217 146 240 223 220 221 241 236 229 218 221 221 226 207 214
218 217 194 192 188 173 174 175 168 163 165 154 166 200 216 230 220 217 207 209 215 214 222 204 196 170 291 225 191 236 187 226 195 224 207 205 230 226 212 222 226 212 214 203
205 197 175 181 178 178 180 180 168 110 161 174 185 173 203 238 246 241 211 212 212 223 202 186 160 64 249 226 243 249 204 215 178 180 115 212 252 203 228 217 237 222 204 180
189 187 180 175 179 184 179 180 168 161 154 149 151 179 172 224 250 253 269 229 218 210 199 121 145 336 29 318 229 199 238 149 125 160 200 12 260 231 196 172 245 241 172 185
184 185 187 187 187 187 180 186 195 154 99 225 193 175 174 150 257 209 240 253 238 212 128 166 195 200 139 188 253 140 106 157 141 150 169 211 195 221 125 103 265 218 204 176
188 187 191 191 191 191 193 196 194 200 217 279 271 185 172 167 282 234 203 219 234 241 207 157 176 207 167 184 186 189 119 74 164 141 157 273 249 171 107 131 231 65 144 142
203 189 188 193 195 195 197 196 193 198 189 292 247 233 152 167 175 305 345 153 213 278 214 198 143 176 177 164 220 195 188 153 149 134 138 256 203 157 140 201 173 119 105 124
180 194 190 196 199 198 197 204 205 211 222 243 247 247 223 227 234 225 265 323 296 191 222 149 133 180 164 167 198 202 185 168 159 187 200 238 168 143 144 161 149 132 121 136
172 194 198 198 198 195 197 198 204 208 196 308 256 250 266 256 223 230 182 255 263 235 228 139 159 201 157 170 224 149 203 171 153 153 201 207 189 98 145 145 149 144 140 140
160 181 193 193 191 196 191 191 200 206 189 221 251 247 234 244 247 246 250 273 261 280 186 107 136 161 63 208 175 150 185 172 160 187 251 124 98 193 161 135 141 142 142 152
119 135 162 174 181 183 185 194 204 206 182 232 282 271 228 222 222 239 250 260 247 251 118 195 153 160 127 285 75 159 185 164 168 193 174 139 146 142 148 140 135 140 136 130
167 175 169 178 171 179 180 184 223 215 213 243 266 257 252 247 240 238 226 235 230 211 165 155 151 120 91 207 197 279 188 136 157 152 174 165 152 154 156 142 142 138 136 142
28 205 172 178 189 190 182 196 202 208 203 193 184 251 232 255 274 354 27 138 138 135 137 148 134 154 137 168 203 183 182 214 195 150 163 144 156 149 151 148 150 151 155 157
44 73 150 179 180 188 195 212 127 174 194 227 243 244 213 199 137 274 300 83 84 34 109 52 132 131 144 182 242 172 175 139 143 152 160 156 151 145 153 160 154 149 151 147
76 55 77 104 89 62 169 160 169 184 181 218 215 200 208 172 84 80 333 72 122 33 280 118 105 136 200 211 192 151 151 146 136 135 140 146 151 151 143 146 159 158 159 162
28 28 53 100 99 77 73 81 151 168 197 241 268 117 38 174 70 66 47 333 108 105 296 111 99 204 234 254 164 142 142 141 137 120 130 145 143 152 156 156 157 169 169 172
342 343 61 121 181 200 163 210 286 205 197 207 293 64 126 68 68 69 360 105 263 122 237 131 175 193 174 154 138 136 135 138 138 140 137 144 147 144 149 158 174 175 179 177
355 303 201 172 199 219 208 202 170 211 146 126 29 73 64 102 101 95 11 339 330 108 197 148 178 203 114 116 117 125 129 131 140 162 156 158 165 162 161 167 161 171 177 181
236 125 349 353 317 21 326 290 45 46 107 156 165 111 137 206 201 171 155 141 304 81 45 176 230 139 129 133 139 129 134 139 145 153 162 162 163 168 167 156 165 174 179 173
348 66 0 58 11 48 351 333 335 318 170 127 154 158 162 156 63 348 74 303 59 359 69 251 184 137 134 138 139 142 137 158 166 166 166 165 171 172 175 177 167 172 175 182
39 25 36 97 197 228 268 272 265 324 144 155 186 47 80 46 64 59 102 27 247 228 221 172 134 135 143 144 154 160 165 168 170 165 161 163 164 173 178 177 180 183 187 195
82 51 49 205 178 306 352 343 3 52 99 27 333 66 45 5 130 129 203 194 203 257 42 124 141 144 146 153 162 169 171 174 163 166 168 165 166 168 169 175 187 193 199 202
98 107 96 317 85 44 12 343 354 0 345 4 354 115 199 132 217 195 191 170 130 105 106 138 154 158 161 163 162 164 168 167 162 153 161 162 160 161 153 157 166 177 178 173